TimeEST,TemperatureF,Dew PointF,Humidity,Sea Level PressureIn,VisibilityMPH,Wind Direction,Wind SpeedMPH,Gust SpeedMPH,PrecipitationIn,Events,Conditions,WindDirDegrees,DateUTC
12:15 AM,37.4,26.6,65,30.07,10.0,SW,15.0,19.6,N/A,Rain,Rain,230,2013-01-01 05:15:00
12:35 AM,37.4,26.6,65,30.05,10.0,SW,10.4,-,N/A,,Overcast,230,2013-01-01 05:35:00
12:55 AM,37.4,26.6,65,30.05,10.0,SW,12.7,16.1,N/A,,Overcast,230,2013-01-01 05:55:00
1:15 AM,37.4,26.6,65,30.04,10.0,WSW,11.5,17.3,N/A,,Overcast,240,2013-01-01 06:15:00
1:35 AM,37.4,26.6,65,30.03,10.0,West,9.2,-,N/A,,Overcast,260,2013-01-01 06:35:00
1:55 AM,37.4,28.4,70,30.04,10.0,WSW,8.1,-,N/A,,Overcast,250,2013-01-01 06:55:00
2:15 AM,37.4,28.4,70,30.03,10.0,SW,5.8,-,N/A,,Overcast,230,2013-01-01 07:15:00
2:35 AM,37.4,30.2,75,30.04,10.0,WSW,6.9,-,N/A,,Overcast,240,2013-01-01 07:35:00
2:55 AM,37.4,30.2,75,30.04,10.0,WSW,6.9,-,N/A,,Overcast,250,2013-01-01 07:55:00
3:15 AM,37.4,32.0,81,30.04,10.0,WSW,8.1,-,N/A,,Overcast,250,2013-01-01 08:15:00
3:35 AM,35.6,32.0,87,30.04,5.0,WSW,5.8,-,N/A,Rain,Rain,250,2013-01-01 08:35:00
3:55 AM,35.6,33.8,93,30.02,3.0,SW,6.9,-,N/A,Rain,Rain,230,2013-01-01 08:55:00
4:15 AM,35.6,35.6,100,30.01,5.0,SW,8.1,-,N/A,Rain,Light Rain,220,2013-01-01 09:15:00
4:35 AM,35.6,35.6,100,30.01,5.0,SSW,5.8,-,0.01,Rain,Light Rain,200,2013-01-01 09:35:00
4:55 AM,35.6,35.6,100,30.00,4.0,SW,10.4,-,0.01,Rain,Light Rain,220,2013-01-01 09:55:00
5:15 AM,37.4,37.4,100,30.00,7.0,SW,11.5,18.4,N/A,Rain,Light Rain,220,2013-01-01 10:15:00
5:35 AM,37.4,37.4,100,30.00,3.0,SW,17.3,23.0,0.01,Rain,Rain,230,2013-01-01 10:35:00
5:55 AM,37.4,37.4,100,29.99,7.0,SW,17.3,24.2,0.01,Rain,Light Rain,230,2013-01-01 10:55:00
6:15 AM,37.4,37.4,100,30.01,7.0,WSW,19.6,26.5,N/A,Rain,Light Rain,240,2013-01-01 11:15:00
6:35 AM,37.4,37.4,100,30.02,5.0,SW,18.4,26.5,N/A,Rain,Light Rain,230,2013-01-01 11:35:00
6:55 AM,37.4,37.4,100,29.98,5.0,SW,16.1,23.0,0.01,Rain,Light Rain,220,2013-01-01 11:55:00
7:15 AM,39.2,39.2,100,30.01,10.0,WSW,12.7,-,0.01,,Light Drizzle,250,2013-01-01 12:15:00
7:35 AM,39.2,39.2,100,30.00,10.0,SW,18.4,24.2,0.01,Rain,Rain,220,2013-01-01 12:35:00
7:55 AM,37.4,37.4,100,30.02,10.0,WSW,12.7,-,0.01,,Overcast,240,2013-01-01 12:55:00
8:15 AM,37.4,37.4,100,30.00,10.0,SSW,17.3,24.2,N/A,,Overcast,210,2013-01-01 13:15:00
8:35 AM,37.4,37.4,100,30.01,7.0,WSW,10.4,23.0,N/A,,Overcast,240,2013-01-01 13:35:00
8:55 AM,37.4,37.4,100,30.03,2.0,WSW,11.5,19.6,N/A,,Overcast,240,2013-01-01 13:55:00
9:15 AM,37.4,37.4,100,30.04,0.5,WSW,11.5,19.6,N/A,Fog,Fog,250,2013-01-01 14:15:00
9:35 AM,37.4,37.4,100,30.01,0.2,SW,16.1,-,N/A,Fog,Fog,220,2013-01-01 14:35:00
10:15 AM,37.4,37.4,100,30.06,0.5,West,15.0,19.6,N/A,Fog,Fog,270,2013-01-01 15:15:00
10:35 AM,37.4,37.4,100,30.04,0.5,West,8.1,-,N/A,Fog,Fog,280,2013-01-01 15:35:00
10:55 AM,37.4,37.4,100,30.00,0.5,WSW,6.9,-,N/A,Fog,Fog,240,2013-01-01 15:55:00
11:15 AM,37.4,37.4,100,30.01,1.0,WSW,8.1,-,N/A,,Overcast,240,2013-01-01 16:15:00
11:35 AM,37.4,37.4,100,30.01,1.0,WSW,8.1,-,N/A,,Overcast,240,2013-01-01 16:35:00
11:55 AM,37.4,37.4,100,30.01,0.2,West,6.9,-,N/A,Fog,Fog,260,2013-01-01 16:55:00
12:15 PM,39.2,39.2,100,29.97,0.2,SSW,13.8,-,N/A,Fog,Fog,200,2013-01-01 17:15:00
12:35 PM,41.0,41.0,100,29.96,2.0,SW,13.8,20.7,N/A,,Overcast,230,2013-01-01 17:35:00
12:55 PM,41.0,41.0,100,29.97,0.8,West,13.8,18.4,N/A,,Overcast,280,2013-01-01 17:55:00
1:15 PM,41.0,41.0,100,29.95,0.2,WSW,10.4,17.3,N/A,Fog,Fog,250,2013-01-01 18:15:00
1:35 PM,41.0,41.0,100,29.93,0.2,SW,6.9,-,N/A,Fog,Fog,220,2013-01-01 18:35:00
2:15 PM,41.0,41.0,100,29.95,0.2,WNW,8.1,-,N/A,Fog,Fog,290,2013-01-01 19:15:00
2:35 PM,41.0,41.0,100,29.94,0.2,NW,4.6,-,N/A,Fog,Fog,310,2013-01-01 19:35:00
2:55 PM,39.2,39.2,100,29.95,0.2,Calm,Calm,-,N/A,Fog,Fog,0,2013-01-01 19:55:00
3:15 PM,41.0,41.0,100,29.95,0.2,North,6.9,-,N/A,Fog,Fog,350,2013-01-01 20:15:00
3:35 PM,37.4,37.4,100,29.97,0.2,North,6.9,-,N/A,Fog,Fog,350,2013-01-01 20:35:00
3:55 PM,37.4,37.4,100,29.98,0.2,North,5.8,-,N/A,Fog,Fog,350,2013-01-01 20:55:00
4:15 PM,37.4,37.4,100,29.97,0.2,Calm,Calm,-,N/A,Fog,Fog,0,2013-01-01 21:15:00
4:35 PM,37.4,37.4,100,29.98,0.2,North,8.1,-,N/A,Fog,Fog,350,2013-01-01 21:35:00
4:55 PM,35.6,35.6,100,30.00,0.2,NNW,10.4,-,N/A,Fog,Fog,340,2013-01-01 21:55:00
5:15 PM,35.6,35.6,100,29.99,2.0,North,5.8,-,N/A,,Drizzle,350,2013-01-01 22:15:00
5:35 PM,35.6,35.6,100,29.98,2.5,Calm,Calm,-,N/A,Rain,Light Rain,0,2013-01-01 22:35:00
5:55 PM,35.6,35.6,100,29.98,7.0,WNW,3.5,-,0.01,,Drizzle,290,2013-01-01 22:55:00
6:15 PM,35.6,35.6,100,29.96,5.0,South,4.6,-,N/A,Rain,Light Rain,170,2013-01-01 23:15:00
6:35 PM,35.6,35.6,100,29.96,10.0,Calm,Calm,-,0.01,Rain,Rain,0,2013-01-01 23:35:00
6:55 PM,35.6,35.6,100,29.96,10.0,Calm,Calm,-,0.01,Rain,Light Rain,0,2013-01-01 23:55:00
7:15 PM,35.6,35.6,100,29.95,2.5,SE,5.8,-,N/A,Rain,Light Rain,140,2013-01-02 00:15:00
7:35 PM,35.6,35.6,100,29.97,3.0,Calm,Calm,-,N/A,Rain,Rain,0,2013-01-02 00:35:00
7:55 PM,35.6,35.6,100,29.97,0.5,Calm,Calm,-,0.01,Rain,Light Rain,0,2013-01-02 00:55:00
8:15 PM,35.6,35.6,100,29.97,0.2,North,3.5,-,N/A,Rain,Light Rain,10,2013-01-02 01:15:00
8:35 PM,35.6,35.6,100,29.97,0.2,North,3.5,-,N/A,Rain,Light Rain,360,2013-01-02 01:35:00
8:55 PM,35.6,35.6,100,29.98,0.2,North,3.5,-,N/A,Rain,Light Rain,360,2013-01-02 01:55:00
9:15 PM,33.8,33.8,100,29.98,0.2,North,5.8,-,N/A,Rain,Light Rain,350,2013-01-02 02:15:00
9:35 PM,33.8,33.8,100,29.97,0.2,North,4.6,-,0.01,Rain,Light Rain,360,2013-01-02 02:35:00
9:55 PM,33.8,33.8,100,29.98,0.5,North,5.8,-,0.01,Fog,Fog,360,2013-01-02 02:55:00
10:15 PM,33.8,33.8,100,29.98,0.8,North,3.5,-,N/A,Rain,Light Rain,350,2013-01-02 03:15:00
10:35 PM,33.8,33.8,100,29.97,2.0,North,3.5,-,N/A,,Overcast,360,2013-01-02 03:35:00
10:55 PM,33.8,33.8,100,29.97,0.2,NNW,3.5,-,N/A,Fog,Fog,340,2013-01-02 03:55:00
11:15 PM,32.0,32.0,100,29.98,0.2,North,5.8,-,N/A,Fog,Fog,350,2013-01-02 04:15:00
11:35 PM,32.0,32.0,100,29.99,0.2,North,8.1,-,N/A,Fog,Fog,350,2013-01-02 04:35:00
11:55 PM,32.0,32.0,100,30.01,0.2,NNW,4.6,-,N/A,Snow,Light Snow,330,2013-01-02 04:55:00